Location: Lake Arresoe
(56.0000°N, 12.5000°E)
Time: 11:07:01
(UTC+02:00)

FENGYUN 1C DEB - Pass Details

Date: 02 February 2022
Orbit: 673 x 853 km, 98.9° (Epoch: 15 May)

Event Time Altitude Azimuth Distance (km) Brightness Sun altitude
Exits shadow 17:51:47 12° 76° (ENE) 2,245 ? -9.4°
Maximum altitude 17:52:21 12° 83° (E) 2,238 ? -9.5°
Drops below altitude 10° 17:54:23 10° 105° (ESE) 2,401 ? -9.8°
Sets 17:58:27 0° 136° (SE) 3,364 ? -10.3°
